Location: Franzen
(48.6167°N, 15.3833°E)
Time: 09:18:48
(UTC+00:00)

Spot 2 Rocket - Pass Details

Date: 22 April 2021
Orbit: 756 x 773 km, 98.5° (Epoch: 16 May)

Event Time Altitude Azimuth Distance (km) Brightness Sun altitude
Exits shadow 20:32:07 32° 191° (S) 1,294 4.3 -21.0°
Maximum altitude 20:34:21 60° 258° (WSW) 875 3.8 -21.2°
Drops below altitude 10° 20:39:23 10° 339° (NNW) 2,310 7.0 -21.7°
Sets 20:41:44 0° 343° (NNW) 3,238 8.0 -22.0°
